This is the latest recevied weather packets stored in our database for station/object EI8EPB-1. If no packets are shown the sender has not sent any weather packets the latest 10 day(s).
| Time | Temp. | Humidity | Pressure | Rain* | Wind** | Luminosity | Snow |
|---|---|---|---|---|---|---|---|
| 1778161203 | 15.56° C | 62% | 1010.4 hPa | 0 mm | - | - | - |
| 1778160903 | 15.56° C | 64% | 1010.4 hPa | 0 mm | - | - | - |
| 1778160603 | 15.56° C | 63% | 1010.4 hPa | 0 mm | - | - | - |
| 1778160303 | 15.56° C | 63% | 1010.5 hPa | 0 mm | - | - | - |
| 1778160004 | 15.56° C | 65% | 1010.4 hPa | 0 mm | - | - | - |
| 1778159704 | 15.56° C | 65% | 1010.5 hPa | 0 mm | - | - | - |
| 1778159403 | 15.56° C | 64% | 1010.5 hPa | 0 mm | - | - | - |
| 1778159103 | 15.56° C | 63% | 1010.5 hPa | 0 mm | - | - | - |
| 1778158803 | 16.11° C | 63% | 1010.6 hPa | 0 mm | - | - | - |
| 1778158503 | 16.11° C | 61% | 1010.5 hPa | 0 mm | - | - | - |
| 1778158203 | 16.67° C | 63% | 1010.5 hPa | 0 mm | - | - | - |
| 1778157904 | 16.11° C | 62% | 1010.6 hPa | 0 mm | - | - | - |
| 1778157603 | 16.11° C | 65% | 1010.6 hPa | 0 mm | - | - | - |
| 1778157303 | 15.56° C | 66% | 1010.7 hPa | 0 mm | - | - | - |
| 1778157003 | 15° C | 66% | 1010.7 hPa | 0 mm | - | - | - |
| 1778156703 | 14.44° C | 70% | 1010.8 hPa | 0 mm | - | - | - |
| 1778156403 | 14.44° C | 70% | 1010.9 hPa | 0 mm | - | - | - |
| 1778156104 | 14.44° C | 71% | 1010.9 hPa | 0 mm | - | - | - |
| 1778155804 | 14.44° C | 70% | 1010.9 hPa | 0 mm | - | - | - |
| 1778155503 | 14.44° C | 70% | 1010.9 hPa | 0 mm | - | - | - |
| 1778155203 | 14.44° C | 72% | 1010.9 hPa | 0 mm | - | - | - |
| 1778154903 | 13.89° C | 74% | 1010.9 hPa | 0 mm | - | - | - |
| 1778154603 | 13.89° C | 73% | 1011 hPa | 0 mm | - | - | - |
| 1778154303 | 13.89° C | 73% | 1010.9 hPa | 0 mm | - | - | - |
| 1778154004 | 13.89° C | 73% | 1010.9 hPa | 0 mm | - | - | - |
* Rain latest hour (hover to see other rain measurements)
** Current wind speed in m/s (hover to see current wind gust speed)